Regional Weather Roundup
Issued by NWS Goodland, KS

Home | Current Version | Previous Version | Graphics & Text | Print | Product List | Glossary On
Versions: 1 2 3 4 5 6 7 8 9 10 11 12 13 14 15 16 17 18 19 20 21 22 23 24 25 26 27 28 29 30 31 32 33 34 35 36 37 38 39 40 41 42 43 44 45 46 47 48 49 50
206
ASUS43 KGLD 250259
RWRGLD

GOODLAND FORECAST AREA HOURLY WEATHER ROUNDUP
NATIONAL WEATHER SERVICE GOODLAND KS
900 PM MDT WED AUG 24 2016

...OFFICIAL OBSERVATIONS...

CITY           SKY/WX    TMP DP  RH WIND       PRES   REMARKS
GOODLAND KS    CLOUDY    58  48  69 NE6       30.18R
HILL CITY KS   MOCLDY    62  55  77 N7        30.13R
IMPERIAL NEB   PTCLDY    64  42  44 S6        30.19R
MCCOOK NEB     CLOUDY    65  49  56 E7        30.14R
AKRON CO       CLOUDY    61  37  41 SE9       30.24R
BURLINGTON CO  CLOUDY    59  39  47 CALM      30.23R
LIMON CO       CLOUDY    59  34  39 E8        30.28R
$$

...UNOFFICIAL OBSERVATIONS...

CITY           SKY/WX    TMP DP  RH WIND       PRES   REMARKS
COLBY KS       CLEAR     63  52  67 NE3       30.18R
NORTON KS      CLOUDY    63  50  63 NE6       30.12S
SHARON SPRINGS   N/A     65  50  58 NE12        N/A
KIT CARSON CO    N/A     60  38  45 MISG        N/A
YUMA CO          N/A     62  45  54 CALM        N/A
$$




USA.gov is the U.S. government's official web portal to all federal, state and local government web resources and services.